[[{"header":{"parameterUnit":"m.s-1","parameterCategory":1,"la1":30.2991,"la2":30.254,"lo1":-89.0895,"lo2":-89.0444,"dy":0.0017,"dx":0.0017,"nx":28,"ny":28,"refTime":"2024-07-11T03:00:00:Z","depth":0,"parameterNumber":2,"parameterNumberName":"U-component_of_WINDS"},"data":[0,0,0,0,0,0,0,0,0,0,0,0,0,0,0,0,0,0,0,0,0,0,0,0,0,0,0,0,0,0,0,0,0,0,0,0,0,0,0,0,0,0,0,0,0,0,0,0,0,0,0,0,0,0,0,0,0,0,1.114,1.1141,0,1.1172,1.1172,1.1173,1.1131,1.1129,1.1128,1.1126,1.1162,1.1164,1.1166,0,0,0,0,0,0,0,0,0,0,0,0,0,1.1045,1.1047,1.114,1.1141,1.1141,1.1172,1.1172,1.1173,1.1131,1.1129,1.1127,1.1126,1.1161,1.1164,1.1167,0,0,0,0,0,0,0,0,0,0,0,0,0,1.1083,1.1048,1.114,1.1124,1.1123,1.1172,1.1172,1.1173,1.1132,1.1129,1.1127,1.1125,1.116,1.1163,1.1167,1.1235,0,0,1.1178,1.1179,0,0,0,0,0,0,0,0,1.1081,1.1086,1.1126,1.1125,1.1124,1.1145,1.1152,1.1194,1.1132,1.1128,1.1126,1.1124,1.1158,1.1162,1.1173,1.1236,1.1238,1.1178,1.118,1.1182,1.1183,0,0,0,0,0,0,0,1.1078,1.1085,1.1153,1.1126,1.1125,1.1116,1.1118,1.116,1.1156,1.1128,1.1125,1.113,1.1157,1.117,1.1173,1.1238,1.1178,1.1181,1.1183,1.1185,1.1359,1.1361,0,0,0,0,0,0,1.1077,1.1083,1.1152,1.1154,1.1096,1.1119,1.1122,1.1141,1.1155,1.1155,1.1132,1.1128,1.1165,1.1169,1.1174,1.1254,1.1182,1.1185,1.1187,1.1356,1.1359,1.1362,0,0,0,0,0,0,1.1075,1.1084,1.1151,1.1118,1.1125,1.1123,1.1144,1.1142,1.1155,1.1158,1.1157,1.1145,1.1163,1.1169,1.122,1.1255,1.1187,1.119,1.1353,1.1357,1.1361,1.1415,0,0,0,0,0,0,1.1073,1.1083,1.1108,1.1118,1.1127,1.1195,1.1146,1.1145,1.1161,1.1156,1.117,1.117,1.1162,1.1215,1.1223,1.1259,1.1193,1.135,1.1355,1.1359,1.141,1.142,1.1428,0,0,0,0,0,1.107,1.1123,1.111,1.1118,1.1158,1.1197,1.1202,1.1191,1.1164,1.1189,1.1191,1.1169,1.125,1.122,1.1229,1.1266,1.1348,1.1354,1.1359,1.1406,1.1418,1.1428,0,0,0,0,0,0,1.1118,1.1124,1.111,1.1168,1.1182,1.119,1.1221,1.1204,1.1227,1.1222,1.1208,1.1211,1.1265,1.1271,1.1238,1.1333,1.1294,1.1302,1.1327,1.1338,1.1348,1.1345,1.1196,0,0,0,0,0,1.1135,1.1165,1.1169,1.122,1.1228,1.1224,1.124,1.123,1.1245,1.1251,1.1256,1.1272,1.13,1.132,1.1346,1.1411,1.1413,1.1441,1.145,1.1458,1.1464,1.1499,1.1511,1.138,1.138,1.138,0,0,1.1172,1.1178,1.1198,1.123,1.124,1.1272,1.1229,1.1265,1.1288,1.1256,1.1304,1.1309,1.1325,1.1382,1.1408,1.1389,1.1501,1.1465,1.1471,1.1474,1.1506,1.1518,1.1529,1.1384,1.1383,1.1383,0,0,1.1254,1.1262,1.1305,1.1316,1.1331,1.1328,1.1338,1.1349,1.135,1.1398,1.1374,1.1403,1.1453,1.1465,1.1478,1.1566,1.1547,1.1575,1.1624,1.1657,1.1668,1.1677,1.1708,1.1719,1.1582,1.1582,1.1582,0,1.1297,1.1343,1.133,1.1367,1.1382,1.1353,1.1397,1.1409,1.1433,1.1444,1.1422,1.1484,1.1493,1.1553,1.1574,1.1586,1.1597,1.1573,1.1667,1.1676,1.1684,1.1714,1.1726,1.1585,1.1585,1.1585,1.1584,0,1.1396,1.1428,1.1462,1.1484,1.1503,1.1543,1.1536,1.1557,1.1546,1.1545,1.1594,1.1604,1.1632,1.1646,1.1635,1.1704,1.1692,1.1669,1.163,1.17,1.1728,1.1739,1.159,1.1589,1.1588,1.1587,0,0,1.1509,1.1523,1.1536,1.1546,1.1561,1.1586,1.1626,1.1652,1.167,1.1688,1.1721,1.1764,1.1742,1.1757,1.1748,1.1778,1.1846,1.1751,1.1751,1.1768,1.1923,1.194,1.1953,1.1834,1.1836,1.1837,1.1921,0,1.1591,1.1658,1.1647,1.1713,1.1743,1.1717,1.1751,1.1765,1.1765,1.1792,1.1792,1.1823,1.1793,1.1801,1.1829,1.1832,1.1877,1.1826,1.1865,1.1866,1.1861,1.1967,1.1985,1.2063,1.1932,1.1934,1.1935,0,1.1695,1.1715,1.1784,1.1794,1.1806,1.1837,1.1861,1.1886,1.1901,1.19,1.1916,1.1902,1.1942,1.1903,1.1958,1.1924,1.1939,1.1943,1.1945,1.1948,1.1904,1.1973,1.2088,1.21,1.1952,1.195,1.1949,0,1.177,1.1815,1.1862,1.1871,1.1884,1.1907,1.1914,1.1926,1.1943,1.1964,1.1975,1.2001,1.2015,1.2035,1.2029,1.2001,1.2085,1.2046,1.2085,1.2086,1.2104,1.2103,1.2223,1.2115,1.2115,1.2114,1.2114,0,1.1863,1.1905,1.1896,1.1924,1.1972,1.1959,1.2007,1.201,1.2022,1.2051,1.2031,1.2059,1.2048,1.2076,1.2071,1.2118,1.2124,1.2125,1.2123,1.2126,1.2126,1.2136,1.213,1.2118,1.2117,1.2116,1.2116,0,1.1954,1.195,1.1999,1.2007,1.201,1.2045,1.2052,1.208,1.2079,1.2116,1.2124,1.2123,1.2155,1.215,1.2185,1.2182,1.224,1.2232,1.2235,1.2233,1.2272,1.2269,1.2403,1.242,1.2301,1.2302,1.2303,0,1.2013,1.2045,1.2057,1.2075,1.2083,1.2113,1.2129,1.2119,1.2137,1.2157,1.2182,1.2211,1.2234,1.2286,1.2289,1.2316,1.2308,1.2353,1.2312,1.2314,1.2308,1.2306,1.2309,1.2361,1.2363,1.2364,1.2365,0,1.2118,1.2114,1.2139,1.2163,1.2184,1.2203,1.2219,1.2235,1.2226,1.2248,1.228,1.2298,1.2334,1.2363,1.2389,1.2396,1.2379,1.2378,1.2388,1.2392,1.2392,1.2392,1.2257,1.2375,1.2374,1.2373,1.2372,1.2372,1.2195,1.2223,1.2235,1.2264,1.2275,1.2291,1.2317,1.2319,1.2345,1.2373,1.2365,1.2401,1.2416,1.2448,1.2458,1.2487,1.247,1.2485,1.2489,1.2493,1.2498,1.2388,1.2491,1.2491,1.2491,1.249,1.249,0,1.2299,1.2306,1.2332,1.2356,1.2378,1.236,1.2377,1.2398,1.2429,1.2444,1.2467,1.2503,1.2532,1.2537,1.2565,1.2586,1.2579,1.2594,1.2592,1.2594,1.2511,1.2499,1.2599,1.2599,1.2599,1.2599,1.2599,1.2599,1.2355,1.24,1.2398,1.2449,1.2456,1.249,1.2502,1.2517,1.2529,1.257,1.2594,1.2596,1.2607,1.2636,1.2661,1.2662,1.2673,1.2691,1.2689,1.2611,1.26,1.259,1.2578,1.2693,1.2694,1.2769,1.277,1.277]},{"header":{"parameterUnit":"m.s-1","parameterCategory":1,"la1":30.2991,"la2":30.254,"lo1":-89.0895,"lo2":-89.0444,"dy":0.0017,"dx":0.0017,"nx":28,"ny":28,"refTime":"2024-07-11T03:00:00:Z","depth":0,"parameterNumber":3,"parameterNumberName":"V-component_of_WINDS"},"data":[0,0,0,0,0,0,0,0,0,0,0,0,0,0,0,0,0,0,0,0,0,0,0,0,0,0,0,0,0,0,0,0,0,0,0,0,0,0,0,0,0,0,0,0,0,0,0,0,0,0,0,0,0,0,0,0,0,0,1.3906,1.3906,0,1.391,1.3911,1.3911,1.3979,1.398,1.3982,1.3984,1.3983,1.3982,1.398,0,0,0,0,0,0,0,0,0,0,0,0,0,1.395,1.3949,1.3906,1.3906,1.3906,1.391,1.3911,1.3911,1.3978,1.398,1.3983,1.3985,1.3984,1.3982,1.398,0,0,0,0,0,0,0,0,0,0,0,0,0,1.394,1.3948,1.3906,1.394,1.3943,1.391,1.3911,1.3911,1.3978,1.398,1.3983,1.3986,1.3985,1.3982,1.398,1.3913,0,0,1.3972,1.3971,0,0,0,0,0,0,0,0,1.3941,1.3938,1.3935,1.3938,1.3941,1.3947,1.3926,1.3911,1.3977,1.3965,1.3984,1.3987,1.3969,1.3968,1.3963,1.3913,1.3913,1.3972,1.3971,1.397,1.3969,0,0,0,0,0,0,0,1.3941,1.3939,1.3907,1.3935,1.3939,1.3954,1.3955,1.3924,1.3952,1.3966,1.3971,1.3971,1.3971,1.3965,1.3963,1.3913,1.3972,1.397,1.3969,1.3968,1.3806,1.3803,0,0,0,0,0,0,1.3938,1.3939,1.3907,1.3908,1.3948,1.3951,1.3953,1.3942,1.3952,1.3957,1.3969,1.3974,1.3968,1.3966,1.3964,1.3885,1.397,1.3967,1.3966,1.3809,1.3805,1.3802,0,0,0,0,0,0,1.3939,1.3934,1.3907,1.3925,1.3922,1.3948,1.3935,1.3941,1.3935,1.3955,1.3959,1.3958,1.397,1.3967,1.3925,1.3885,1.3966,1.3964,1.3812,1.3808,1.3804,1.3726,0,0,0,0,0,0,1.394,1.3934,1.391,1.3924,1.3921,1.3869,1.3933,1.3939,1.3931,1.3938,1.3946,1.3949,1.3972,1.3928,1.3922,1.3884,1.3962,1.3816,1.381,1.3805,1.3732,1.372,1.3709,0,0,0,0,0,1.3941,1.3887,1.3908,1.3904,1.3892,1.3867,1.3866,1.3894,1.3928,1.3903,1.3915,1.3949,1.3891,1.3923,1.3917,1.3877,1.3818,1.3812,1.3806,1.3738,1.3722,1.371,0,0,0,0,0,0,1.3866,1.3889,1.3913,1.3863,1.3863,1.3879,1.3848,1.3877,1.3866,1.3873,1.3908,1.3908,1.386,1.3865,1.39,1.3812,1.3861,1.3853,1.3811,1.3796,1.3785,1.3784,1.396,0,0,0,0,0,1.3845,1.3824,1.3845,1.3798,1.3797,1.3822,1.3813,1.3835,1.3836,1.3835,1.3845,1.3842,1.3824,1.3811,1.3795,1.3734,1.3735,1.3703,1.3692,1.3682,1.3674,1.3641,1.3627,1.3782,1.3782,1.3782,0,0,1.3798,1.3808,1.3793,1.3783,1.3786,1.3762,1.3822,1.3795,1.3777,1.3831,1.3792,1.3798,1.3798,1.3746,1.3724,1.3748,1.3632,1.3674,1.3666,1.3664,1.3633,1.3618,1.3605,1.3777,1.3778,1.3779,0,0,1.3702,1.3708,1.3669,1.3671,1.3675,1.3692,1.3683,1.3694,1.3701,1.3663,1.3703,1.3682,1.3649,1.3647,1.3642,1.3545,1.3574,1.3538,1.3477,1.3444,1.3432,1.3421,1.3385,1.3372,1.3531,1.3531,1.353,0,1.3643,1.3611,1.3645,1.3616,1.3609,1.3659,1.3619,1.3618,1.3616,1.3609,1.3638,1.3598,1.3601,1.3549,1.3525,1.352,1.3509,1.3537,1.3431,1.3421,1.3411,1.3377,1.3364,1.3526,1.3527,1.3527,1.3528,0,1.3538,1.3515,1.3483,1.3481,1.3471,1.3437,1.3464,1.345,1.3473,1.3487,1.3446,1.3452,1.3438,1.3428,1.3449,1.3378,1.3393,1.3426,1.3475,1.3392,1.336,1.3347,1.352,1.3521,1.3523,1.3524,0,0,1.3393,1.3412,1.3399,1.3398,1.3406,1.3388,1.3355,1.3343,1.3329,1.3326,1.3298,1.3269,1.33,1.3294,1.3316,1.3287,1.3208,1.3323,1.3324,1.33,1.3128,1.3102,1.3086,1.3229,1.3226,1.3225,1.3127,0,1.3299,1.3245,1.3275,1.3216,1.3194,1.3241,1.3212,1.3213,1.3225,1.3207,1.322,1.3199,1.3241,1.3238,1.3212,1.3223,1.3174,1.3231,1.3201,1.3199,1.3198,1.307,1.3043,1.2951,1.3115,1.3113,1.3112,0,1.3182,1.3175,1.3114,1.3126,1.3118,1.3091,1.3082,1.3065,1.3066,1.3077,1.307,1.3099,1.3066,1.3116,1.3069,1.3107,1.3097,1.31,1.3097,1.3094,1.3149,1.3062,1.2922,1.2908,1.3093,1.3095,1.3096,0,1.308,1.3056,1.3016,1.3015,1.3028,1.3008,1.3012,1.3016,1.3006,1.2998,1.2992,1.2979,1.2971,1.296,1.2983,1.3018,1.2933,1.2985,1.2939,1.2938,1.2917,1.2918,1.2772,1.2913,1.2913,1.2914,1.2914,0,1.2971,1.2932,1.2971,1.2946,1.2903,1.2937,1.2893,1.2902,1.2905,1.2882,1.2921,1.2898,1.2932,1.2911,1.293,1.2887,1.2884,1.289,1.2895,1.2886,1.2885,1.2878,1.2884,1.291,1.2911,1.2911,1.2912,0,1.285,1.2875,1.2835,1.2851,1.2854,1.2821,1.2834,1.2811,1.2826,1.2796,1.2791,1.2814,1.2792,1.2815,1.2794,1.2807,1.2749,1.2764,1.2749,1.2753,1.2705,1.2708,1.2548,1.2528,1.2683,1.2682,1.268,0,1.2778,1.2749,1.2762,1.275,1.2752,1.2732,1.2723,1.2756,1.2744,1.2743,1.272,1.2702,1.2689,1.2651,1.2665,1.2649,1.2663,1.2608,1.2661,1.2652,1.266,1.2661,1.2657,1.2597,1.2595,1.2593,1.2592,0,1.2646,1.266,1.2647,1.2637,1.2625,1.2619,1.2615,1.2602,1.2636,1.2621,1.26,1.259,1.2569,1.255,1.2538,1.2541,1.2571,1.2576,1.2564,1.2553,1.2545,1.2547,1.2718,1.2579,1.258,1.2581,1.2582,1.2582,1.2546,1.2522,1.2528,1.2511,1.2512,1.2508,1.2487,1.25,1.2483,1.247,1.249,1.2463,1.2465,1.2452,1.2451,1.243,1.2453,1.2436,1.2431,1.2426,1.2418,1.255,1.2428,1.2428,1.2429,1.2429,1.2429,0,1.2415,1.2422,1.2406,1.24,1.2386,1.2419,1.2416,1.2402,1.2378,1.2378,1.2365,1.234,1.2321,1.2334,1.2318,1.2298,1.2311,1.2293,1.2293,1.2293,1.2399,1.2411,1.2282,1.2282,1.2282,1.2282,1.2282,1.2282,1.2346,1.2306,1.2321,1.2282,1.2288,1.2264,1.2259,1.2255,1.2255,1.2226,1.2211,1.222,1.2225,1.2209,1.2193,1.2197,1.2189,1.2164,1.2173,1.2271,1.2286,1.23,1.231,1.2163,1.2163,1.2068,1.2068,1.2067]}]]